Location: Ellingshausen
(50.5460°N, 10.4723°E)
Time: 23:14:09
(UTC+00:00)

Cosmos 2218 Rocket - Pass Details

Date: 18 January 2026
Orbit: 956 x 1005 km, 82.9° (Epoch: 7 February)

Event Time Altitude Azimuth Distance (km) Brightness Sun altitude
Rises 06:01:17 0° 191° (S) 3,674 7.1 -10.7°
Reaches altitude 10° 06:03:46 10° 192° (SSW) 2,737 6.5 -10.3°
Maximum altitude 06:10:05 81° 279° (W) 1,012 4.0 -9.4°
Drops below altitude 10° 06:16:30 10° 8° (N) 2,784 6.3 -8.5°
Sets 06:19:04 0° 10° (N) 3,742 6.9 -8.1°
